STARLINK-3161 (49422 NORAD) Tracking and Keplerian Element Data

This shows tracking and keplerian element data for the satellite.

Feedback or suggestion? Click here.




ElementValue
Catalog49422
NameSTARLINK-3161
Epoch Orbit365
Epoch Day15.91668981
Epoch Year2022
RAAN185.3608
Inclination53.2174
Eccentricity0.0001493
Argument of Perigee47.5052
Mean Anonmoly6.0913
Mean Motion15.24781717
Decay Rate-0.00655141
L11 49422U 21104Q 22015.91668981 -.00655141 00000+0 -28099-1 0 9999
L22 49422 53.2174 185.3608 0001493 47.5052 6.0913 15.24781717 3652

Live tracking and technical data element details for STARLINK-3161 (NORAD 49422). STARLINK-3161 can be tracked NOW for your location showing map with azimuth and elevation plus other details from your city location.

Track the satellite on the map from your city or location and see movement details for azimuth, elevation, latitude, longitude, range, height, and movement on the map or in text.







IsCatalogInMostPopularTable: catalog: 49422, numindb: 5
Update: records affected: 1



GetName: 49422 STARLINK-3161

Hit Count: updated at: Thu, 20 Jan 2022 17:34:46 GMT